Location: Peebles
(55.6412°N, 3.1714°W)
Time: 10:45:36
(UTC+01:00)

deb NNS O-4 - Pass Details

Date: 28 June 2022
Orbit: 977 x 1074 km, 89.9° (Epoch: 15 August)

Event Time Altitude Azimuth Distance (km) Brightness Sun altitude
Exits shadow 02:12:32 - 156° (SSE) 3,427 ? -10.2°
Reaches altitude 10° 02:13:58 10° 153° (SSE) 2,907 ? -10.1°
Maximum altitude 02:20:24 53° 79° (E) 1,302 ? -9.9°
Drops below altitude 10° 02:26:50 10° 5° (N) 2,901 ? -9.6°
Sets 02:29:26 0° 1° (N) 3,849 ? -9.5°
